Location: Bottens
(46.6171°N, 6.6605°E)
Time: 14:41:25
(UTC+00:00)

Cosmos 1825 - Pass Details

Date: 23 October 2021
Orbit: 501 x 504 km, 82.5° (Epoch: 04 December)

Event Time Altitude Azimuth Distance (km) Brightness Sun altitude
Rises 18:14:30 0° 359° (N) 2,609 5.8 -18.2°
Reaches altitude 10° 18:16:48 10° 10° (N) 1,720 4.8 -18.6°
Enters shadow 18:18:01 18° 22° (NNE) 1,304 4.0 -18.8°
